Regional Weather Roundup
Issued by NWS

Home | Current Version | Previous Version | Text Only | Print | Product List | Glossary On
Versions: 1 2 3 4 5 6 7 8 9 10 11 12 13 14 15 16 17 18 19 20 21 22 23 24 25 26 27 28 29 30 31 32 33 34 35 36 37 38 39 40 41 42 43 44 45 46 47 48 49 50
000
ASUS44 KFWD 200803
RWRTX
NORTH TEXAS HOURLY WEATHER ROUNDUP
NATIONAL WEATHER SERVICE FORT WORTH TX
200 AM CST TUE FEB 20 2018

NOTE: "FAIR" INDICATES FEW OR NO CLOUDS BELOW 12,000 FEET WITH NO
SIGNIFICANT WEATHER AND/OR OBSTRUCTIONS TO VISIBILITY.

TXZ118-119-200900-
DALLAS/FORT WORTH METROPLEX

CITY           SKY/WX    TMP DP  RH WIND       PRES   REMARKS
DFW AIRPORT    CLOUDY    74  66  76 S21G33    29.81S
DALLAS LOVE    CLOUDY    72  66  81 S18G28    29.84R
FTW MEACHAM    CLOUDY    73  67  81 S28G36    29.80S
DAL-EXECUTIVE  MOCLDY    71  66  84 S16G29    29.83S
FTW-ALLIANCE   CLOUDY    72  66  81 S18G28    29.81R
FTW-NAS-JRB    CLOUDY    72  64  76 S23G31    29.81
FTW-SPINKS     CLOUDY    71  65  80 S17G26    29.84F
ARLINGTON      CLOUDY    70  67  90 SE21G31   29.82S
GRAND PRAIRIE  MOCLDY    71  64  79 SE16G23   29.85S
ADDISON        CLOUDY    71  65  82 S17G31    29.85F
MESQUITE       CLOUDY    70  65  84 SE20G25   29.86S
LANCASTER      CLOUDY    70  65  83 S15G24    29.87S
$$

TXZ091>094-102>105-117-120-121-131>134-200900-
NORTH CENTRAL TEXAS

CITY           SKY/WX    TMP DP  RH WIND       PRES   REMARKS
SHRMAN/DENISON CLOUDY    69  64  83 S21G26    29.83S
GAINESVILLE    CLOUDY    70  64  82 S20G28    29.83R
BOWIE          CLOUDY    70  64  82 S17G24    29.78S
BRIDGEPORT     CLOUDY    71  64  76 S20G25    29.81S
DECATUR        CLOUDY    70  65  83 S21G30    29.79F
DENTON         CLOUDY    71  65  81 S23G31    29.82R
MCKINNEY       CLOUDY    69  66  90 S18       29.84R
BONHAM         CLOUDY    69  64  82 S21G29    29.86R
ROCKWALL       FAIR      69  66  88 S16G31    29.85S
TERRELL        CLOUDY    71  64  78 S18G25    29.88S
WAXAHACHIE     CLOUDY    70  66  87 S20G26    29.87S
CLEBURNE       CLOUDY    70  68  94 S17       29.85F
GRANBURY       CLOUDY    73  65  76 S18G26    29.83S
$$

TXZ083>090-098>101-113>116-127>130-139>142-154-155-200900-
WESTERN NORTH TEXAS

CITY           SKY/WX    TMP DP  RH WIND       PRES   REMARKS
WICHITA FALLS  FAIR      69  62  78 S18       29.73R
WF-KICKAPOO    MOCLDY    69  64  81 S18       29.75F
VERNON         FAIR      68  59  72 S15G21    29.71R
ABILENE        FAIR      67  64  90 S14       29.76S
BRECKENRIDGE   FAIR      72  63  72 S21G28    29.74F
CISCO          FAIR      70  64  83 S15G24    29.78F
EASTLAND       CLOUDY    69  64  84 S13G18    29.79S
RANGER         MOCLDY    69  64  85 S22G29    29.77F
MINERAL WELLS  CLOUDY    71  64  78 S17G28    29.78F
STEPHENVILLE   CLOUDY    69  64  84 S12G20    29.86R
COMANCHE       TSTM      66  64  91 S17G36    29.82F
BROWNWOOD      LGT RAIN  68  66  94 S13G20    29.85R
COLEMAN        MOCLDY    69  63  81 S21G29    29.79F
$$

TXZ143>147-156>162-174-175-200900-
CENTRAL TEXAS

CITY           SKY/WX    TMP DP  RH WIND       PRES   REMARKS
WACO           CLOUDY    71  64  78 S18       29.86R
WACO-MCGREGOR  CLOUDY    72  66  81 S16G25    29.86S
HILLSBORO      CLOUDY    71  68  90 SE17G23   29.86S
CORSICANA      CLOUDY    72  65  78 S20G28    29.90R
MEXIA          CLOUDY    71  64  80 SE18G31   29.89R
HEARNE         MOCLDY    71  66  84 SE21G30   29.90S
CAMERON        CLOUDY    73  66  79 S15G28    29.89R
TEMPLE         CLOUDY    72  67  84 S24G30    29.86R
KILLEEN        CLOUDY    71  64  80 S18G25    29.85R
KILLEEN-SKYLRK CLOUDY    71  66  84 S15G23    29.87R
FORT HOOD      CLOUDY    70  64  83 S13       29.83R
GATESVILLE     MOCLDY    72  64  78 S14G22    29.86F
HAMILTON       CLOUDY    71  65  82 S14       29.86S
LAMPASAS       CLOUDY    71  63  75 S15G25    29.83F
$$

TXZ095>097-106>112-122>126-135>138-148>153-164>167-200900-
EAST TEXAS

CITY           SKY/WX    TMP DP  RH WIND       PRES   REMARKS
PARIS          CLOUDY    70  65  84 S21       29.88F
SULPHUR SPRNGS CLOUDY    72  65  80 S17G24    29.90F
MOUNT PLEASANT MOCLDY    69  66  90 S12G18    29.93R
GILMER         CLOUDY    70  66  86 SE9G20    29.92F
MINEOLA        CLOUDY    72  64  78 S13G22    29.91R
TYLER          CLOUDY    72  64  76 S21G31    29.91F
LONGVIEW       CLOUDY    71  67  87 S20       29.94S
MARSHALL       CLOUDY    70  65  85 S12G17    29.98S
ATHENS         CLOUDY    68  61  77 S14G25    29.91R
PALESTINE      MOCLDY    71  65  79 SE15G24   29.93F
JACKSONVILLE   CLOUDY    70  66  86 S13G24    29.96F
HENDERSON      CLOUDY    71  65  83 S12G18    29.96S
CENTER         CLOUDY    69  65  86 SE13G22   30.00F
NACOGDOCHES    CLOUDY    70  67  90 SE12      29.98
LUFKIN         CLOUDY    70  67  90 S12G21    29.97F
$$

SUPPLEMENTAL OBSERVATIONS (NWS FORT WORTH AREA)

CITY           SKY/WX    TMP DP  RH WIND       PRES   REMARKS
$$

SUPPLEMENTAL OBSERVATIONS (NWS NORMAN AREA)

CITY           SKY/WX    TMP DP  RH WIND       PRES   REMARKS
GOODLETT         N/A     65  55  70 SE17      29.67S
ODELL            N/A     67  62  85 S21       29.71S
CROWELL          N/A     68  61  79 S20       29.71S
KNOX CITY        N/A     66  59  77 S18       29.72R
SEYMOUR          N/A     69  63  80 S22G31    29.71F
$$

SUPPLEMENTAL OBSERVATIONS (NWS SAN ANGELO AREA)

CITY           SKY/WX    TMP DP  RH WIND       PRES   REMARKS
WEINERT          N/A     67  62  82 S22       29.73S
HASKELL          N/A     67  60  78 S15G21    29.73S
THROCKMORTON     N/A     69  64  83 S14       29.75S
STAMFORD         N/A     68  64  85 S22       29.74R
CLYDE            N/A     67  64  89 S15       29.78F
$$

SUPPLEMENTAL OBSERVATIONS (NWS SHREVEPORT AREA)

CITY           SKY/WX    TMP DP  RH WIND       PRES   REMARKS
$$

SUPPLEMENTAL OBSERVATIONS ARE A COLLECTION OF AUTOMATED INSTRUMENTS
THAT ARE MAINTAINED BY A VARIETY OF FEDERAL AND STATE AGENCIES.
CERTAIN ELEMENTS...SUCH AS HUMIDITY VALUES AND SUSTAINED WIND
SPEEDS...MAY BE APPROXIMATED.





USA.gov is the U.S. government's official web portal to all federal, state and local government web resources and services.